Location: Arbon
(43.0005°N, 0.7472°E)
Time: 03:25:07
(UTC+00:00)

CZ-4C R/B - Pass Details

Date: 07 August 2020
Orbit: 409 x 491 km, 97.7° (Epoch: 25 September)

Event Time Altitude Azimuth Distance (km) Brightness Sun altitude
Exits shadow 03:51:57 - 184° (S) 1,808 5.6 -10.8°
Reaches altitude 10° 03:52:43 10° 187° (S) 1,492 5.1 -10.7°
Maximum altitude 03:55:46 43° 261° (W) 609 3.1 -10.3°
Drops below altitude 10° 03:58:53 10° 334° (NNW) 1,527 5.7 -9.8°
Sets 04:01:02 0° 341° (NNW) 2,428 6.8 -9.5°
